Regional Weather Roundup
Issued by NWS

Home | Current Version | Previous Version | Graphics & Text | Print | Product List | Glossary On
Versions: 1 2 3 4 5 6 7 8 9 10 11 12 13 14 15 16 17 18 19 20 21 22 23 24 25 26 27 28 29 30 31 32 33 34 35 36 37 38 39 40 41 42 43 44 45 46 47 48 49 50
000
ASUS44 KMEG 251516
RWRTN

TENNESSEE HOURLY STATE WEATHER ROUNDUP
NATIONAL WEATHER SERVICE MEMPHIS TN
900 AM CST TUE NOV 25 2014

TNZ002-004-019-021-049-052-054-088>092-251600-
WEST TENNESSEE

CITY           SKY/WX    TMP DP  RH WIND       PRES   REMARKS
MEMPHIS INTL   PTSUNNY   42  24  49 NW10      30.24R
NWS MEMPHIS      N/A     41 N/A N/A MISG        N/A
JACKSON        MOSUNNY   42  29  59 N7        30.22R
DYERSBURG      SUNNY     37  21  52 W6        30.24R WCI  33
UNION CITY     SUNNY     37  30  75 W6        30.20R WCI  33
PARIS          SUNNY     37  27  65 NW6       30.20R WCI  33
HUNTINGDON     MOSUNNY   38  28  67 NW5       30.21R WCI  34
LEXINGTON      SUNNY    N/A N/A N/A MISG      30.19R
SAVANNAH       SUNNY     39  34  81 N5        30.21R
$$

TNZ008-025-027-028-033-062-065-066-251600-
NORTH MIDDLE TENNESSEE

CITY           SKY/WX    TMP DP  RH WIND       PRES   REMARKS
NASHVILLE      MOSUNNY   42  30  62 NW10      30.17R
CLARKSVILLE    SUNNY     40  28  62 NW8       30.18R WCI  34
SMYRNA         SUNNY     42  34  73 NW12      30.18R
COOKEVILLE     SUNNY     46  37  71 SW6       30.12R
CROSSVILLE     SUNNY     47  30  51 CALM      30.13R
$$

TNZ061-075-076-078-094-096-097-251600-
SOUTH MIDDLE TENNESSEE

CITY           SKY/WX    TMP DP  RH WIND       PRES   REMARKS
FAYETTEVILLE   SUNNY     45  30  57 MISG      30.15R
TULLAHOMA      SUNNY     45  34  65 NW5       30.14S
WINCHESTER     SUNNY     45  36  70 CALM      30.15R
MCMINNVILLE    SUNNY     45  37  76 CALM      30.14R
COLUMBIA       SUNNY     41  39  93 VRB5      30.17R
SHELBYVILLE    SUNNY     45  36  70 MISG      30.16R
$$

TNZ017-018-042-046-047-251600-
NORTHEAST TENNESSEE

CITY           SKY/WX    TMP DP  RH WIND       PRES   REMARKS
TRI CITIES     CLOUDY    44  34  67 CALM      30.16R
ELIZABETHTON   SUNNY     41  34  75 CALM      30.16R
$$

TNZ012-013-036-069-073-074-251600-
CENTRAL EAST TENNESSEE

CITY           SKY/WX    TMP DP  RH WIND       PRES   REMARKS
KNOXVILLE      MOSUNNY   46  34  62 CALM      30.14S
OAK RIDGE      SUNNY     46  33  60 CALM      30.15F
GATLINBURG     SUNNY     41  34  75 CALM      30.13F
MORRISTOWN     SUNNY     46  34  61 CALM      30.13F
$$

TNZ083-085-099-251600-
SOUTHEAST TENNESSEE

CITY           SKY/WX    TMP DP  RH WIND       PRES   REMARKS
CHATTANOOGA    MOSUNNY   49  37  63 CALM      30.15R
$$

SKY/WX REPORTED AS FAIR MEANS FEW OR NO CLOUDS BELOW
12 THOUSAND FEET.





USA.gov is the U.S. government's official web portal to all federal, state and local government web resources and services.